« Back
NWS Peachtree City, Ga » Text Product » GA Regional Weather Roundup


Printer-friendly Version
Current Version              Previous Versions:   1  2  3  4  5  6  7  8  9  

Regional Weather Roundup

263
ASUS42 KFFC 011503
RWRGA
WEATHER ROUNDUP FOR GEORGIA
NATIONAL WEATHER SERVICE PEACHTREE CITY GA
1100 AM EDT FRI JUL 01 2016

NOTE: "FAIR" INDICATES FEW OR NO CLOUDS BELOW 12,000 FEET WITH NO
SIGNIFICANT WEATHER AND/OR OBSTRUCTIONS TO VISIBILITY.

* = USE WITH CAUTION. THE STATIONS MARKED WITH AN ASTERISK MAY NOT
REPORT WEATHER SUCH AS PRECIPITATION, FOG, OR THUNDER AND ARE NOT
QUALITY CONTROLLED BY NWS.

THE REMARK "TC" DENOTES TEMPERATURE READING IN DEGREES CELSIUS.

GAZ001>058-011600-
NORTH GEORGIA

CITY           SKY/WX    TMP DP  RH WIND       PRES   REMARKS
ATLANTA        MOSUNNY   82  69  64 VRB3      30.05S
ATHENS         CLOUDY    78  74  87 W5        30.04S
CHAMBLEE       MOSUNNY   85  66  53 W6        30.05R
PEACHTREE CITY SUNNY     81  70  69 VRB5      30.06R
ROME           SUNNY     82  65  56 VRB6      30.02S
WEST ATLANTA   SUNNY     83  68  60 S8        30.04S
GAINESVILLE    SUNNY     79  68  69 VRB5      30.07S
CARTERSVILLE   SUNNY     82  62  50 VRB3      30.04F


CITY           SKY/WX    TMP DP  RH WIND       PRES   REMARKS
DALTON*        SUNNY     81  68  65 CALM      30.03S
LAWRENCEVILLE* MOSUNNY   81  70  69 W7        30.06S
MARIETTA       MOSUNNY   82  67  60 SW8       30.04F
KENNESAW*      SUNNY     82  63  51 W7        30.00F
CANTON*        SUNNY     82  54  36 W5        30.06S
$$

GAZ059>098-102>109-011600-
CENTRAL GEORGIA

CITY           SKY/WX    TMP DP  RH WIND       PRES   REMARKS
AUGUSTA-BUSH   CLOUDY    81  72  74 CALM      30.03S
AUGUSTA-DANIEL PTSUNNY   82  72  71 SW3       30.05S
COLUMBUS       CLOUDY    78  71  79 NW7       30.05R
MACON          CLOUDY    83  71  67 W8        30.05R
ROBINS AFB     PTSUNNY   82  72  71 W9        30.04S


CITY           SKY/WX    TMP DP  RH WIND       PRES   REMARKS
LAGRANGE*      PTSUNNY   84  74  72 W5        30.05S HX  92
SYLVANIA*      MOSUNNY   84  75  73 W3        30.04S HX  92
MILLEDGEVILLE* CLOUDY    79  77  94 CALM      30.05S
$$

GAZ099>101-110>166-011600-
SOUTH GEORGIA

CITY           SKY/WX    TMP DP  RH WIND       PRES   REMARKS
SAVANNAH       CLOUDY    83  74  74 W7        30.04S
VALDOSTA       MOSUNNY   85  76  74 VRB5      30.04S HX  94
ALMA           PTSUNNY   84  72  67 W9        30.04S
ST SIMONS      CLOUDY    84  75  74 W8        30.03F HX  92
FT STEWART     CLOUDY    83  74  75 W7        30.02S
ALBANY         PTSUNNY   82  72  71 W7        30.06S
HUNTER AFB     CLOUDY    81  78  88 NW6       30.01F
MOODY AFB      PTSUNNY   85  72  65 W7        30.04S HX  90
BRUNSWICK      CLOUDY    84  79  84 W6        30.05F HX  96


CITY           SKY/WX    TMP DP  RH WIND       PRES   REMARKS
BAINBRIDGE*    CLOUDY    84  73  70 SW6       30.04R HX  91
MOULTRIE*      MOSUNNY   82  73  74 SW3       30.05F
VIDALIA*       CLOUDY    82  72  69 W5        30.04S
WAYCROSS*      CLOUDY    87  78  73 W7        30.04F HX 100
DOUGLAS*       PTSUNNY   82  72  69 W7        30.06S
$$




USA.gov is the U.S. government's official web portal to all federal, state and local government web resources and services.